EW9975 Weather Reports


time (UTC)temp
F
wind
direction
speed
knots
gust
knots
rain 1hr
in
rain 24hr
in
rain mn
in
humidity
%
barometer
mb
20260507151519 61 309 2.6 4.3 0.00 0.02 0.00 92 1017.3
20260507150017 61 284 4.3 6.1 0.00 0.02 0.00 92 1017.3
20260507144517 61 293 0.9 2.6 0.00 0.02 0.00 92 1017.2
20260507143016 60 40 1.7 3.5 0.00 0.02 0.00 92 1017.0
20260507141515 60 53 2.6 4.3 0.00 0.02 0.00 92 1016.9
20260507140015 60 46 2.6 3.5 0.00 0.02 0.00 92 1016.8
20260507134515 60 333 0.9 2.6 0.00 0.02 0.00 93 1016.7
20260507133012 60 333 0.0 0.0 0.00 0.02 0.00 93 1016.6
20260507131512 60 333 0.0 0.0 0.00 0.02 0.00 93 1016.6
20260507130011 60 333 0.0 0.0 0.00 0.02 0.00 92 1016.5
20260507124510 60 333 0.0 0.0 0.00 0.02 0.00 92 1016.4
20260507123012 60 333 0.0 0.0 0.00 0.02 0.00 92 1016.3
20260507121508 60 333 0.0 0.0 0.00 0.02 0.00 92 1016.4
20260507120008 60 333 0.0 0.0 0.00 0.02 0.00 92 1016.3
20260507114506 60 333 0.0 2.6 0.00 0.03 0.00 92 1016.3
20260507113006 60 333 0.9 2.6 0.00 0.03 0.00 92 1016.3
20260507111504 60 333 0.0 1.7 0.00 0.03 0.00 92 1016.4
20260507110003 60 333 1.7 3.5 0.00 0.03 0.00 92 1016.5
20260507104502 60 281 0.0 0.0 0.00 0.03 0.00 92 1016.6
20260507103129 60 281 0.0 0.0 0.00 0.03 0.00 92 1016.7
20260507101559 60 281 0.0 0.0 0.00 0.03 0.00 92 1016.8
20260507100108 60 281 0.0 0.0 0.00 0.03 0.00 92 1016.8
20260507094559 60 281 0.0 0.0 0.00 0.03 0.00 92 1016.9
20260507093059 60 281 0.0 0.0 0.00 0.03 0.00 92 1017.1
20260507091553 60 281 0.0 0.0 0.00 0.03 0.00 92 1017.1
20260507090058 60 281 0.0 0.0 0.00 0.03 0.00 91 1017.2
20260507084603 60 281 0.0 0.0 0.00 0.03 0.00 91 1017.4
20260507083051 60 281 0.0 0.0 0.00 0.03 0.00 92 1017.4
20260507081548 60 281 0.0 0.0 0.00 0.03 0.00 91 1017.5
20260507080053 60 281 0.0 0.0 0.00 0.03 0.00 91 1017.6
20260507074546 60 281 0.0 0.0 0.00 0.03 0.00 91 1017.8
20260507073045 60 281 0.0 0.0 0.00 0.03 0.00 90 1017.8
20260507071541 61 281 0.0 0.0 0.00 0.03 0.00 90 1017.9
20260507070059 61 280 0.0 0.0 0.00 0.03 0.00 90 1017.9
20260507064548 62 280 0.0 4.3 0.00 0.03 0.03 89 1018.1
20260507063038 62 290 3.5 7.0 0.00 0.03 0.03 90 1018.2
20260507061538 62 306 2.6 4.3 0.00 0.03 0.03 90 1018.1
20260507060037 62 296 3.5 7.0 0.00 0.03 0.03 91 1018.2
20260507054554 62 290 4.3 7.0 0.00 0.04 0.03 91 1018.2
20260507053036 62 287 1.7 7.0 0.01 0.04 0.03 92 1018.2
20260507051537 62 313 4.3 7.0 0.01 0.04 0.03 91 1018.2
20260507050042 62 318 4.3 7.0 0.01 0.04 0.03 92 1018.1
20260507044539 62 311 7.0 9.6 0.01 0.04 0.03 92 1018.1
20260507043034 62 311 5.2 8.7 0.00 0.03 0.02 92 1018.0
20260507041532 62 306 7.0 9.6 0.00 0.03 0.02 91 1017.8
20260507040038 62 304 6.1 8.7 0.00 0.03 0.02 91 1017.8
20260507034532 62 320 4.3 7.8 0.00 0.03 0.02 91 1017.6
20260507033030 62 307 4.3 7.8 0.00 0.03 0.02 91 1017.5
20260507031530 62 284 6.1 7.8 0.00 0.03 0.02 90 1017.3
20260507030031 62 299 4.3 8.7 0.00 0.03 0.02 90 1017.1
20260507024534 62 315 6.1 9.6 0.00 0.03 0.02 90 1017.3
20260507023027 62 298 6.1 10.4 0.00 0.03 0.02 90 1017.2
20260507021534 63 267 8.7 11.3 0.00 0.03 0.02 89 1017.3
20260507020026 63 275 7.8 11.3 0.00 0.03 0.02 89 1017.2
20260507014528 63 290 8.7 11.3 0.00 0.04 0.02 90 1017.1
20260507013024 63 284 8.7 12.2 0.00 0.04 0.02 90 1016.9
20260507011524 63 264 7.8 10.4 0.00 0.04 0.02 90 1016.8
20260507010030 63 257 7.8 10.4 0.00 0.04 0.02 90 1016.9
20260507004519 63 274 9.6 11.3 0.00 0.04 0.02 90 1017.1
20260507003015 63 259 9.6 12.2 0.00 0.04 0.02 90 1017.0
20260507001514 63 258 10.4 12.2 0.00 0.04 0.02 89 1016.9
20260507000008 63 262 9.6 12.2 0.00 0.04 0.02 89 1016.7
20260506234504 63 275 9.6 12.2 0.00 0.04 0.02 89 1016.7
20260506233100 63 271 8.7 11.3 0.00 0.04 0.02 89 1016.7
20260506231559 63 254 10.4 13.0 0.00 0.04 0.02 89 1016.8
20260506230104 62 273 9.6 13.9 0.00 0.04 0.02 88 1016.8
20260506224556 63 267 8.7 13.9 0.00 0.04 0.02 88 1016.8
20260506223055 63 270 11.3 14.8 0.00 0.04 0.02 89 1017.0
20260506221600 62 251 12.2 13.9 0.00 0.04 0.02 88 1017.1
20260506220050 62 265 10.4 15.6 0.00 0.04 0.02 87 1017.4
20260506214549 62 261 11.3 14.8 0.00 0.05 0.02 88 1017.4
20260506213054 62 268 11.3 15.6 0.00 0.05 0.02 87 1017.5
20260506211553 62 256 13.0 15.6 0.00 0.05 0.02 87 1017.6
20260506210048 62 261 12.2 15.6 0.00 0.05 0.02 86 1017.8
20260506204546 62 265 11.3 14.8 0.00 0.05 0.02 86 1017.8
20260506203044 62 250 13.0 14.8 0.00 0.05 0.02 86 1017.9
20260506201543 62 254 11.3 13.9 0.00 0.05 0.02 86 1017.9
20260506200045 62 240 8.7 11.3 0.00 0.05 0.02 87 1018.2
20260506194543 62 234 9.6 12.2 0.00 0.05 0.02 86 1018.4
20260506193047 62 234 11.3 13.0 0.00 0.05 0.02 86 1018.3
20260506191539 62 227 8.7 11.3 0.00 0.05 0.02 86 1018.7
20260506190036 61 238 8.7 10.4 0.00 0.05 0.02 85 1018.6
20260506184539 61 250 7.8 9.6 0.01 0.06 0.02 85 1018.8
20260506183034 61 248 7.0 8.7 0.01 0.06 0.02 85 1018.9
20260506181542 61 248 7.8 9.6 0.01 0.06 0.02 85 1018.9
20260506180031 61 242 6.1 7.8 0.01 0.06 0.02 85 1018.9
20260506174535 61 252 6.1 7.8 0.00 0.05 0.01 85 1018.8
20260506173048 61 234 4.3 7.0 0.00 0.05 0.01 85 1019.0
20260506171539 61 264 5.2 7.0 0.00 0.05 0.01 84 1019.0
20260506170038 61 266 5.2 7.0 0.00 0.05 0.01 84 1019.1
20260506164526 62 257 3.5 6.1 0.00 0.06 0.01 83 1019.1
20260506163029 62 309 3.5 7.0 0.00 0.06 0.01 83 1019.0
20260506161524 62 322 1.7 4.3 0.00 0.06 0.01 83 1018.9
20260506160022 62 269 1.7 4.3 0.00 0.06 0.01 82 1019.0
20260506154520 62 54 0.0 3.5 0.00 0.06 0.01 83 1019.0
20260506153022 61 63 1.7 5.2 0.00 0.06 0.01 83 1018.9